AirNav   Air Wisconsin pilot careers
 
 398 users online  

4AL9 T W Spear Memorial Airport
Lapine, Alabama, USA

GOING TO LAPINE?


FAA INFORMATION EFFECTIVE 28 MARCH 2019

Location

FAA Identifier: 4AL9
Lat/Long: 31-58-29.0000N / 086-17-38.0000W
31-58.483333N / 086-17.633333W
31.9747222 / -86.2938889
(estimated)
Elevation: 438 ft. / 134 m (estimated)
Variation: 01W (1995)
From city: 1 mile N of LAPINE, AL
Time zone: UTC -5 (UTC -6 during Standard Time)
Zip code: 36046

Airport Operations

Airport use: Private use. Permission required prior to landing
Activation date: 09/1996
Control tower: no
ARTCC: ATLANTA CENTER
FSS: ANNISTON FLIGHT SERVICE STATION
Attendance: CONTINUOUS
Wind indicator: yes
Segmented circle: no
Landing fee: yes

Airport Communications

WX ASOS at TOI (16 nm SE): PHONE 334-566-3081
WX ASOS at PRN (18 nm SW): 120.0 (334-383-9676)

Nearby radio navigation aids

VOR radial/distance  VOR name  Freq  Var
MGMr172/14.9MONTGOMERY VORTAC112.1003E

 
NDB name  Hdg/Dist  Freq  Var  ID
BLOOD316/12.936504WTOI - --- ..

Airport Services

Fuel available: 100LL

Runway Information

Runway 4/22

Dimensions: 2909 x 30 ft. / 887 x 9 m
Surface: asphalt, in poor condition
UNEVEN SFC WITH NUMEROUS DEPRESSIONS & STANDING WATER AFTER RAIN.
RUNWAY 4  RUNWAY 22
Traffic pattern: leftleft
Displaced threshold: no150 ft.
Obstructions: 80 ft. trees, 1200 ft. from runway, 5:1 slope to clear76 ft. trees, 352 ft. from runway, 2:1 slope to clear

Airport Ownership and Management from official FAA records

Ownership: Privately-owned
Owner: ART PERSKY
228 MERRITT HAY ROAD
LAPINE, AL 36046
Phone 334-300-5986
Manager: ART PERSKY
228 MERRITT HAY ROAD
LAPINE, AL 36046
Phone 334-300-5986

Airport Operational Statistics

Aircraft based on the field: 6
Single engine airplanes: 3
Multi engine airplanes: 2
Ultralights: 1
    

Instrument Procedures

There are no published instrument procedures at 4AL9.

Some nearby airports with instrument procedures:

KTOI - Troy Municipal Airport at N Kenneth Campbell Field (16 nm SE)
KPRN - Mac Crenshaw Memorial Airport (18 nm SW)
KMGM - Montgomery Regional Airport (Dannelly Field) (20 nm N)
KMXF - Maxwell Air Force Base (25 nm N)
1A9 - Prattville Airport - Grouby Field (30 nm N)
 
Loc | Ops | Rwys | IFR | FBO | Links
Com | Nav | Svcs | Stats | Notes
Area around 4AL9 (T W Spear Memorial Airport)
 
Road maps at: MapQuest Bing Google
 
Aerial photo
No photo
 
Sectional chart

 
Airport distance calculator
Flying to T W Spear Memorial Airport? Find the distance to fly.

From to 4AL9

Sunrise and sunset
Times for 23-Apr-2019
 Local
(UTC-5)
 Zulu
(UTC)
Morning civil twilight05:4310:43
Sunrise06:0811:08
Sunset19:1900:19
Evening civil twilight19:4400:44

Current date and time
Zulu (UTC)  23-Apr-2019 09:54:18
Local (UTC-5)  23-Apr-2019 04:54:18
 
METAR
KTOI 
16nm SE 
230853Z AUTO 00000KT 10SM CLR 11/10 A3012 RMK AO2 SLP197 T01060100 55008
KPRN 
18nm SW 
230856Z AUTO 00000KT 10SM CLR 11/08 A3011 RMK AO2 SLP192 T01110083 56009
KMGM 
20nm N 
230853Z AUTO 00000KT 10SM CLR 11/11 A3012 RMK AO2 SLP197 T01110106 56005
KMXF 
24nm N 
230856Z AUTO 00000KT 10SM CLR 12/11 A3010 RMK AO2 SLP195 T01170112 56005
K1A9 
30nm N 
230935Z AUTO 00000KT 10SM CLR 10/10 A3012 RMK AO2 T01000100
TAF
KTOI 
16nm SE 
230520Z 2306/2406 00000KT P6SM FEW250 FM231700 23006KT P6SM SCT250 FM240000 00000KT P6SM BKN250
NOTAMs
Click for the latest NOTAMs
NOTAMs are issued by the DoD/FAA and will open in a separate window not controlled by AirNav.

 

 
 

Would you like to see your business listed on this page?

 If your business provides an interesting product or service to pilots, flight crews, aircraft, or users of the T W Spear Memorial Airport, you should consider listing it here.  To start the listing process, click on the button below
 
Add a business
 

Other Pages about T W Spear Memorial Airport

Update a link
 
Copyright © AirNav, LLC. All rights reserved. Privacy Policy  Contact